When you browse on this site, cookies collect data to enhance your experience and personalize the content and advertising you see.
Visit our Privacy Policy to learn more. By continuing to use the site, you agree to this use of cookies and data.
  • Em Portugal
  • Lista de países
  • Para 7 dias
  • Temperatura da água
  • Mapas de satélite
  • Mapa do tempo
  • Widgets de tempo
  • user-avatar
    Iniciar Sessão

    Previsão horária em Kostyushino

    Hoje, 24 Abril, Quarta-feira

    Tempo Temperatura Precipitação Vento Pressão Humidade
    00:00 +9°C° 0 mm 2 m/s 757 mmHg 67%
    01:00 +8°C° 0 mm 2 m/s 757 mmHg 68%
    02:00 +9°C° 0 mm 1 m/s 757 mmHg 69%
    03:00 +7°C° 0 mm 2 m/s 757 mmHg 70%
    04:00 +7°C° 0 mm 2 m/s 757 mmHg 70%
    05:00 +7°C° 0 mm 2 m/s 757 mmHg 71%
    06:00 +9°C° 0 mm 2 m/s 758 mmHg 64%
    07:00 +11°C° 0 mm 3 m/s 758 mmHg 58%
    08:00 +13°C° 0 mm 3 m/s 758 mmHg 51%
    09:00 +16°C° 0 mm 3 m/s 758 mmHg 47%
    10:00 +18°C° 0 mm 4 m/s 758 mmHg 42%
    11:00 +20°C° 0 mm 4 m/s 757 mmHg 37%
    12:00 +20°C° 0 mm 4 m/s 757 mmHg 36%
    13:00 +21°C° 0 mm 4 m/s 757 mmHg 35%
    14:00 +21°C° 0 mm 4 m/s 757 mmHg 34%
    15:00 +21°C° 0 mm 3 m/s 757 mmHg 37%
    16:00 +20°C° 0 mm 3 m/s 757 mmHg 41%
    17:00 +20°C° 0 mm 2 m/s 757 mmHg 44%
    18:00 +18°C° 0 mm 2 m/s 757 mmHg 49%
    19:00 +16°C° 0 mm 2 m/s 757 mmHg 55%
    20:00 +14°C° 0 mm 2 m/s 757 mmHg 61%
    21:00 +13°C° 0 mm 2 m/s 757 mmHg 64%
    22:00 +12°C° 0 mm 2 m/s 757 mmHg 66%
    23:00 +12°C° 0 mm 2 m/s 757 mmHg 69%

    Amanhã, 25 Abril, Quinta-feira

    Tempo Temperatura Precipitação Vento Pressão Humidade
    00:00 +11°C° 0 mm 1 m/s 757 mmHg 69%
    01:00 +10°C° 0 mm 1 m/s 757 mmHg 69%
    02:00 +10°C° 0 mm 1 m/s 757 mmHg 69%
    03:00 +10°C° 0 mm 1 m/s 757 mmHg 69%
    04:00 +10°C° 0 mm 1 m/s 757 mmHg 68%
    05:00 +9°C° 0 mm 1 m/s 757 mmHg 68%
    06:00 +12°C° 0 mm 1 m/s 757 mmHg 61%
    07:00 +14°C° 0 mm 1 m/s 757 mmHg 54%
    08:00 +16°C° 0 mm 1 m/s 757 mmHg 47%
    09:00 +17°C° 0 mm 2 m/s 757 mmHg 44%
    10:00 +19°C° 0 mm 2 m/s 757 mmHg 40%
    11:00 +20°C° 0 mm 2 m/s 757 mmHg 36%
    12:00 +21°C° 0 mm 2 m/s 756 mmHg 35%
    13:00 +21°C° 0 mm 2 m/s 756 mmHg 34%
    14:00 +23°C° 0 mm 2 m/s 756 mmHg 33%
    15:00 +21°C° 0 mm 2 m/s 756 mmHg 36%
    16:00 +21°C° 0 mm 2 m/s 755 mmHg 38%
    17:00 +21°C° 0 mm 1 m/s 755 mmHg 41%
    18:00 +19°C° 0 mm 1 m/s 755 mmHg 44%
    19:00 +16°C° 0 mm 1 m/s 755 mmHg 47%
    20:00 +14°C° 0 mm 1 m/s 755 mmHg 50%
    21:00 +14°C° 0 mm 1 m/s 755 mmHg 52%
    22:00 +13°C° 0 mm 1 m/s 755 mmHg 53%
    23:00 +11°C° 0 mm 0 m/s 755 mmHg 54%

    Depois de amanhã, 26 Abril, Sexta-feira

    Tempo Temperatura Precipitação Vento Pressão Humidade
    00:00 +11°C° 0 mm 0 m/s 755 mmHg 55%
    01:00 +10°C° 0 mm 0 m/s 755 mmHg 57%
    02:00 +10°C° 0 mm 0 m/s 755 mmHg 58%
    03:00 +10°C° 0 mm 0 m/s 755 mmHg 60%
    04:00 +11°C° 0 mm 1 m/s 755 mmHg 61%
    05:00 +11°C° 0 mm 1 m/s 755 mmHg 63%
    06:00 +13°C° 0 mm 1 m/s 755 mmHg 59%
    07:00 +15°C° 0 mm 1 m/s 755 mmHg 54%
    08:00 +18°C° 0 mm 1 m/s 755 mmHg 50%
    09:00 +19°C° 0 mm 1 m/s 755 mmHg 46%
    10:00 +20°C° 0 mm 1 m/s 755 mmHg 41%
    11:00 +22°C° 0 mm 1 m/s 754 mmHg 37%
    12:00 +22°C° 0 mm 1 m/s 754 mmHg 36%
    13:00 +22°C° 0 mm 1 m/s 754 mmHg 36%
    14:00 +21°C° 0 mm 1 m/s 753 mmHg 35%
    15:00 +20°C° 0.2 mm 1 m/s 753 mmHg 42%
    16:00 +19°C° 0.2 mm 1 m/s 752 mmHg 49%
    17:00 +18°C° 0.2 mm 1 m/s 752 mmHg 56%
    18:00 +16°C° 0.8 mm 1 m/s 751 mmHg 65%
    19:00 +14°C° 0.8 mm 1 m/s 751 mmHg 73%
    20:00 +13°C° 0.8 mm 1 m/s 751 mmHg 81%
    21:00 +13°C° 0.1 mm 1 m/s 751 mmHg 82%
    22:00 +13°C° 0.1 mm 1 m/s 750 mmHg 82%
    23:00 +12°C° 0.1 mm 1 m/s 750 mmHg 83%

    27 Abril, Sábado

    Tempo Temperatura Precipitação Vento Pressão Humidade
    00:00 +12°C° 0 mm 1 m/s 750 mmHg 83%
    01:00 +12°C° 0 mm 1 m/s 749 mmHg 84%
    02:00 +12°C° 0 mm 1 m/s 749 mmHg 85%
    03:00 +11°C° 0.1 mm 1 m/s 749 mmHg 86%
    04:00 +11°C° 0.1 mm 1 m/s 748 mmHg 88%
    05:00 +11°C° 0.1 mm 1 m/s 748 mmHg 90%
    06:00 +12°C° 0 mm 1 m/s 748 mmHg 84%
    07:00 +14°C° 0 mm 2 m/s 747 mmHg 78%
    08:00 +16°C° 0 mm 2 m/s 747 mmHg 72%
    09:00 +17°C° 0.8 mm 2 m/s 747 mmHg 64%
    10:00 +18°C° 0.8 mm 2 m/s 746 mmHg 57%
    11:00 +20°C° 0.8 mm 2 m/s 746 mmHg 50%
    12:00 +20°C° 0 mm 2 m/s 746 mmHg 48%
    13:00 +20°C° 0 mm 2 m/s 745 mmHg 45%
    14:00 +20°C° 0 mm 2 m/s 745 mmHg 43%
    15:00 +20°C° 0 mm 2 m/s 745 mmHg 46%
    16:00 +19°C° 0 mm 2 m/s 745 mmHg 49%
    17:00 +19°C° 0 mm 1 m/s 745 mmHg 52%
    18:00 +17°C° 0 mm 2 m/s 745 mmHg 52%
    19:00 +16°C° 0 mm 3 m/s 745 mmHg 52%
    20:00 +14°C° 0 mm 4 m/s 746 mmHg 53%
    21:00 +13°C° 0 mm 4 m/s 746 mmHg 57%
    22:00 +11°C° 0 mm 4 m/s 747 mmHg 61%
    23:00 +10°C° 0 mm 4 m/s 747 mmHg 65%

    28 Abril, Domingo

    Tempo Temperatura Precipitação Vento Pressão Humidade
    00:00 +7°C° 0 mm 4 m/s 748 mmHg 64%
    01:00 +6°C° 0 mm 4 m/s 749 mmHg 63%
    02:00 +4°C° 0 mm 4 m/s 749 mmHg 62%
    03:00 +3°C° 0 mm 4 m/s 750 mmHg 64%
    04:00 +1°C° 0 mm 4 m/s 750 mmHg 65%
    05:00 0°C° 0 mm 4 m/s 751 mmHg 67%
    06:00 +1°C° 0 mm 4 m/s 752 mmHg 65%
    07:00 +3°C° 0 mm 4 m/s 752 mmHg 63%
    08:00 +4°C° 0 mm 4 m/s 753 mmHg 60%
    09:00 +5°C° 0 mm 4 m/s 753 mmHg 56%
    10:00 +6°C° 0 mm 4 m/s 753 mmHg 52%
    11:00 +6°C° 0 mm 4 m/s 753 mmHg 47%
    12:00 +7°C° 0 mm 4 m/s 754 mmHg 45%
    13:00 +7°C° 0 mm 4 m/s 754 mmHg 42%
    14:00 +8°C° 0 mm 4 m/s 754 mmHg 39%
    15:00 +7°C° 0 mm 4 m/s 754 mmHg 39%
    16:00 +7°C° 0 mm 4 m/s 754 mmHg 39%
    17:00 +7°C° 0 mm 4 m/s 754 mmHg 40%
    18:00 +5°C° 0 mm 3 m/s 755 mmHg 45%
    19:00 +5°C° 0 mm 2 m/s 755 mmHg 51%
    20:00 +3°C° 0 mm 2 m/s 755 mmHg 57%
    21:00 +2°C° 0 mm 2 m/s 756 mmHg 59%
    22:00 +2°C° 0 mm 2 m/s 756 mmHg 61%
    23:00 +1°C° 0 mm 2 m/s 757 mmHg 64%

    29 Abril, Segunda-feira

    Tempo Temperatura Precipitação Vento Pressão Humidade
    00:00 +1°C° 0 mm 2 m/s 757 mmHg 66%
    01:00 -1°C° 0 mm 2 m/s 757 mmHg 68%
    02:00 +1°C° 0 mm 1 m/s 757 mmHg 70%
    03:00 +1°C° 0 mm 1 m/s 757 mmHg 69%
    04:00 +1°C° 0 mm 1 m/s 758 mmHg 68%
    05:00 +1°C° 0 mm 1 m/s 758 mmHg 68%
    06:00 +3°C° 0 mm 1 m/s 758 mmHg 60%
    07:00 +4°C° 0 mm 1 m/s 758 mmHg 52%
    08:00 +6°C° 0 mm 1 m/s 758 mmHg 45%
    09:00 +8°C° 0 mm 1 m/s 758 mmHg 41%
    10:00 +9°C° 0 mm 1 m/s 757 mmHg 38%
    11:00 +10°C° 0 mm 1 m/s 757 mmHg 34%
    12:00 +10°C° 0 mm 1 m/s 756 mmHg 32%
    13:00 +11°C° 0 mm 1 m/s 756 mmHg 31%
    14:00 +11°C° 0 mm 1 m/s 755 mmHg 29%
    15:00 +11°C° 0 mm 1 m/s 755 mmHg 30%
    16:00 +10°C° 0 mm 2 m/s 755 mmHg 31%
    17:00 +10°C° 0 mm 2 m/s 754 mmHg 31%
    18:00 +9°C° 0 mm 1 m/s 754 mmHg 37%
    19:00 +7°C° 0 mm 1 m/s 754 mmHg 42%
    20:00 +6°C° 0 mm 1 m/s 754 mmHg 47%
    21:00 +5°C° 0 mm 1 m/s 754 mmHg 50%
    22:00 +4°C° 0 mm 1 m/s 754 mmHg 53%
    23:00 +4°C° 0 mm 1 m/s 754 mmHg 55%
    Mostrar mais